User: anonymous
Location: Unspecified
(0.0000°N, 0.0000°E)
Time: 02:25:20
(UTC+00:00)
Language:

USA 200 - Orbit

View from above orbital plane
View from above orbital plane
View from above satellite
View from above satellite

Ground track
Ground track

The orbit data is extracted from the following two-line orbital elements,

1 32706U 08010A   14210.56811475 -.00000265  00000-0  00000-0 0    09
2 32706  63.1329 122.1774 6896536 267.8252  18.6315  2.00609104    09
Epoch (UTC): 29 July 2014 13:38:05
Eccentricity: 0.6896536
inclination: 63.1329°
perigee height: 1863 km
apogee height: 38492 km
right ascension of ascending node: 122.1774°
argument of perigee: 267.8252°
revolutions per day: 2.00609104
mean anomaly at epoch: 18.6315°
orbit number at epoch: 0

The dashed part of the orbit path shows where the satellite is in the earth's shadow,  

DLR